User: anonymous   Login
Location: Unspecified
(0.0000°N, 0.0000°E)
Time: 11:35:18
(UTC+01:00)
Language:

YAOGAN 3 - Orbit

View from above orbital plane
View from above orbital plane
View from above satellite
View from above satellite

Ground track
Ground track

The orbit data is extracted from the following two-line orbital elements,

1 32289U 07055A   14330.88983418  .00001679  00000-0  21744-3 0  8095
2 32289 097.9500 321.6605 0001686 102.8748 257.2664 14.82157645380624
Epoch (UTC): 26 November 2014 21:21:21
Eccentricity: 0.0001686
inclination: 97.9500°
perigee height: 621 km
apogee height: 624 km
right ascension of ascending node: 321.6605°
argument of perigee: 102.8748°
revolutions per day: 14.82157645
mean anomaly at epoch: 257.2664°
orbit number at epoch: 38062

The dashed part of the orbit path shows where the satellite is in the earth's shadow,  

DLR